Regional Weather Roundup
Issued by NWS

Home | Current Version | Previous Version | Text Only | Print | Product List | Glossary On
Versions: 1 2 3 4 5 6 7 8 9 10 11 12 13 14 15 16 17 18 19 20 21 22 23 24 25 26 27 28 29 30 31 32 33 34 35 36 37 38 39 40 41 42 43 44 45 46 47 48 49 50
000
ASUS43 KLOT 290507
RWRIL

ILLINOIS REGIONAL WEATHER ROUNDUP
NATIONAL WEATHER SERVICE CHICAGO/ROMEOVILLE IL
1200 AM CDT SAT APR 29 2017

NOTE: "FAIR" INDICATES FEW OR NO CLOUDS BELOW 12,000 FEET WITH NO
SIGNIFICANT WEATHER AND/OR OBSTRUCTIONS TO VISIBILITY.

* THESE STATIONS ARE NOT UNDER NWS QUALITY CONTROL. THEY ALSO MAY NOT
  REPORT WEATHER SUCH AS PRECIPITATION OR FOG.

ILZ001-002-007-009-015-016-024-290600-
NORTHWEST ILLINOIS

CITY           SKY/WX    TMP DP  RH WIND       PRES   REMARKS
MOLINE         CLOUDY    49  45  86 VRB6      29.99R
STERLING*      CLOUDY    48  46  93 NE10      29.99F
SAVANNA*       CLOUDY    45  44  97 N8        30.03R FOG
$$

ILZ003-004-008-010-011-017-018-290600-
NORTH CENTRAL ILLINOIS

CITY           SKY/WX    TMP DP  RH WIND       PRES   REMARKS
ROCKFORD       DRIZZLE   47  44  90 NE10      30.04S
FREEPORT*      CLOUDY    45  43  93 NE12      30.05R FOG
ROCHELLE*      CLOUDY    47  46  93 N16       30.00F
DE KALB*       CLOUDY    49  44  82 NE13      30.01S
PERU*          CLOUDY    51  48  90 N10       29.96F FOG
$$

ILZ005-006-012>014-019>023-290600-
NORTHEAST ILLINOIS

CITY           SKY/WX    TMP DP  RH WIND       PRES   REMARKS
CHICAGO-OHARE  CLOUDY    47  39  74 NE15      30.02R
CHICAGO-MIDWAY CLOUDY    49  39  68 N14G24    30.02R
AURORA         CLOUDY    50  42  74 NE13      29.98S
LANSING*       CLOUDY    48  44  85 N13       30.01R
JOLIET*        CLOUDY    52  46  78 NE10G18   29.97F
WAUKEGAN       CLOUDY    44  41  89 NE7       30.03R
DUPAGE AIRPORT CLOUDY    49  41  74 NE15      30.00R
KANKAKEE*      CLOUDY    53  50  89 NE6       29.95F
WHEELING       CLOUDY    45  41  86 N10       30.04R
MORRIS*        CLOUDY    52  46  81 CALM      29.96F
ROMEOVILLE*    CLOUDY    49  44  81 NE21      29.98S
NORTHERLY ISL    N/A     46  39  76 MISG        N/A
$$

LMZ740>746-290600-
SOUTHERN LAKE MICHIGAN

STATION/POSITION SKY/WX   TEMP    WIND        PRES    VSBY  WAVE
                          AIR SEA DIR/SP/G                  HT/PER
                          (F)     (DEG/KT/KT) (MB)    (MI)  (FT/S)
SOUTHERN BUOY              43 41   20/ 16/ 19 1016.3          1/ 3
HARRISON CRIB              46     360/ 18/ 19   N/A
BURNHAM HARBOR             45     360/ 18/ 18   N/A
CALUMET HARBOR             46     340/ 14/ 20 1016.1R
BURNS HARBOR               46      40/ 11/ 13 1015.9R
MICHIGAN CITY              46      30/ 13/ 15   N/A
MICHIGAN CITY 6N           45 47                N/A           2/ 3
ST. JOSEPH                 48 48   50/ 12/ 16 1016.5          2/ 3
$$

ILZ025>027-034>036-040-047-049-050-058-095>099-290600-
WEST-CENTRAL ILLINOIS

CITY           SKY/WX    TMP DP  RH WIND       PRES   REMARKS
QUINCY         CLOUDY    56  56 100 NE10      29.87F FOG
GALESBURG*     CLOUDY    49  49  98 N14       29.93F FOG
MACOMB*        CLOUDY    55  55  99 N7        29.92F FOG
JACKSONVILLE*  CLOUDY    55  54  97 NE5       29.89R
PITTSFIELD*    CLOUDY    56  55  99 NE6       29.90R FOG
$$

ILZ028>032-037-038-041>044-048-051>054-059>061-290600-
CENTRAL ILLINOIS

CITY           SKY/WX    TMP DP  RH WIND       PRES   REMARKS
PONTIAC        CLOUDY    56  55  98 N9        29.93F
BLOOMINGTON    CLOUDY    53  52  96 NE7       29.92S FOG
DECATUR        CLOUDY    56  56 100 NE9       29.91R
PEORIA         MOCLDY    57  54  89 N3        29.90F
LACON*         CLOUDY    54  54  99 N5        29.92F
LINCOLN*       CLOUDY    55  55 100 N3        29.91R FOG
SPRINGFIELD    CLOUDY    57  55  93 NE8       29.91R FOG
TAYLORVILLE    CLOUDY    55  55  98 N9        29.88F FOG
$$

ILZ033-039-045-046-055>057-062-063-290600-
EAST-CENTRAL ILLINOIS

CITY           SKY/WX    TMP DP  RH WIND       PRES   REMARKS
CHAMPAIGN      CLOUDY    56  54  93 NE7       29.92R FOG
RANTOUL*       CLOUDY    56  56  98 NE6       29.92R FOG
MATTOON        CLOUDY    55  55 100 NE7       29.87F FOG
PARIS*         CLOUDY    55  55  99 E6        29.90F THUNDER FOG
$$

ILZ079-100>102-290600-
SOUTHWEST ILLINOIS

CITY           SKY/WX    TMP DP  RH WIND       PRES   REMARKS
ALTON          CLOUDY    56  55  97 N5        29.87R FOG
BELLEVILLE     LGT RAIN  57  57 100 NW5       29.85R VSB 3/4
CAHOKIA*       CLOUDY    59  56  89 N5        29.85R FOG
SPARTA*        CLOUDY    57  57 100 CALM      29.84S FOG
$$

ILZ064>066-069>071-074>076-080>082-084>086-088>090-092>094-290600-
SOUTH-CENTRAL ILLINOIS

CITY           SKY/WX    TMP DP  RH WIND       PRES   REMARKS
CARBONDALE     LGT RAIN  63  63 100 N5        29.81F FOG
CAIRO*         CLOUDY    73  70  92 NW3       29.79R
EFFINGHAM*     CLOUDY    57  57 100 E3        29.88F FOG
MARION         RAIN      64  63  94 NE7       29.83S
MT. VERNON     CLOUDY    59  58  96 NE6       29.86R THUNDER FOG
CENTRALIA*     CLOUDY    58  58 100 CALM      29.83F FOG
SALEM*         CLOUDY    59  57  94 NE5       29.85F FOG
METROPOLIS*    CLOUDY    76  71  82 S7        29.81R
$$

ILZ067-068-072-073-078-083-087-091-290600-
SOUTHEAST ILLINOIS

CITY           SKY/WX    TMP DP  RH WIND       PRES   REMARKS
LAWRENCEVILLE  CLOUDY    59  58  96 NE6       29.88R FOG
FLORA*         CLOUDY    59  58  96 NE5       29.87R FOG
FAIRFIELD*     CLOUDY    59  59 100 N3        29.82F THUNDER FOG
HARRISBURG*    TSTM      63  62  99 E7        29.88R
ROBINSON*      CLOUDY    57  57  99 NE3       29.89R FOG
CARMI*         TSTM      61  61 100 NE3       29.89R
$$

ABBREVIATIONS USED IN REMARKS
   TC - TEMPERATURE IN CELSIUS
  WCI - WIND CHILL INDEX
   HX - HEAT INDEX
  VSB - VISIBILITY
$$





USA.gov is the U.S. government's official web portal to all federal, state and local government web resources and services.